Zurück zum Katalog

FENGYUN 1C DEB

AktivSSO
NORAD 31179·DEBRIS·🇨🇳 China

Gestartet May 10, 1999 von Taiyuan Satellite Launch Center

Loading…

Nächste Überflüge (nächste 24 Stunden)

TLE

AktuellSource: Space-Track

Epoche: Sep 14, 2026, 18:53 UTC

1 31179U 99025BJH 26257.78727792  .00000827  00000-0  56002-3 0  9990
2 31179  99.0044 275.3414 0213407 327.4974  31.3193 13.92635326657826

Verfolge FENGYUN 1C DEB in Echtzeit mit AllMySat

Download on the App Store